| time (UTC) | temp C | wind direction | speed KPH | gust KPH | rain 1hr cm | rain 24hr cm | rain mn cm | humidity % | barometer mb |
| 20260510022607 | 23 | 140 | 0.0 | 6.4 | 0.00 | 0.00 | 0.00 | 85 | 1010.0 |
| 20260510022102 | 23 | 175 | 0.0 | 1.6 | 0.00 | 0.00 | 0.00 | 85 | 1009.6 |
| 20260510021558 | 23 | 146 | 6.4 | 9.7 | 0.00 | 0.00 | 0.00 | 85 | 1009.8 |
| 20260510021055 | 23 | 114 | 0.0 | 4.8 | 0.00 | 0.00 | 0.00 | 84 | 1009.8 |
| 20260510020550 | 23 | 157 | 4.8 | 4.8 | 0.00 | 0.00 | 0.00 | 84 | 1009.7 |
| 20260510020046 | 23 | 186 | 3.2 | 3.2 | 0.00 | 0.00 | 0.00 | 83 | 1009.5 |
| 20260510015542 | 23 | 148 | 0.0 | 0.0 | 0.00 | 0.00 | 0.00 | 82 | 1009.6 |
| 20260510015038 | 23 | 144 | 1.6 | 3.2 | 0.00 | 0.00 | 0.00 | 82 | 1009.5 |
| 20260510014534 | 24 | 155 | 0.0 | 1.6 | 0.00 | 0.00 | 0.00 | 82 | 1009.6 |
| 20260510014032 | 24 | 184 | 0.0 | 0.0 | 0.00 | 0.00 | 0.00 | 81 | 1009.4 |
| 20260510013526 | 24 | 176 | 0.0 | 0.0 | 0.00 | 0.00 | 0.00 | 80 | 1009.2 |
| 20260510013022 | 24 | 175 | 0.0 | 0.0 | 0.00 | 0.00 | 0.00 | 80 | 1009.1 |
| 20260510012516 | 25 | 180 | 0.0 | 0.0 | 0.00 | 0.00 | 0.00 | 79 | 1009.1 |
| 20260510012012 | 25 | 137 | 0.0 | 0.0 | 0.00 | 0.00 | 0.00 | 79 | 1009.1 |
| 20260510011507 | 25 | 146 | 0.0 | 1.6 | 0.00 | 0.00 | 0.00 | 78 | 1009.0 |
| 20260510011003 | 25 | 185 | 0.0 | 3.2 | 0.00 | 0.00 | 0.00 | 78 | 1009.1 |
| 20260510010500 | 25 | 163 | 0.0 | 3.2 | 0.00 | 0.00 | 0.00 | 78 | 1008.8 |
| 20260510005957 | 25 | 180 | 0.0 | 4.8 | 0.00 | 0.00 | 0.00 | 77 | 1008.9 |
| 20260510005453 | 25 | 153 | 0.0 | 0.0 | 0.00 | 0.00 | 0.00 | 77 | 1008.7 |
| 20260510004950 | 25 | 164 | 0.0 | 0.0 | 0.00 | 0.00 | 0.00 | 77 | 1008.8 |
| 20260510004447 | 25 | 148 | 0.0 | 1.6 | 0.00 | 0.00 | 0.00 | 76 | 1008.7 |
| 20260510003945 | 26 | 156 | 0.0 | 0.0 | 0.00 | 0.00 | 0.00 | 76 | 1008.6 |
| 20260510003442 | 26 | 180 | 0.0 | 0.0 | 0.00 | 0.00 | 0.00 | 75 | 1008.5 |
| 20260510002942 | 26 | 170 | 0.0 | 3.2 | 0.00 | 0.00 | 0.00 | 75 | 1008.5 |
| 20260510002439 | 26 | 174 | 0.0 | 0.0 | 0.00 | 0.00 | 0.00 | 75 | 1008.3 |
| 20260510001935 | 26 | 157 | 0.0 | 0.0 | 0.00 | 0.00 | 0.00 | 74 | 1008.4 |
| 20260510001432 | 26 | 190 | 0.0 | 0.0 | 0.00 | 0.00 | 0.00 | 73 | 1008.4 |
| 20260510000930 | 26 | 193 | 0.0 | 0.0 | 0.00 | 0.00 | 0.00 | 73 | 1008.4 |
| 20260510000426 | 26 | 186 | 0.0 | 3.2 | 0.00 | 0.00 | 0.00 | 73 | 1008.3 |
| 20260509235923 | 26 | 155 | 0.0 | 1.6 | 0.00 | 0.00 | 0.00 | 72 | 1008.2 |
| 20260509235420 | 27 | 201 | 0.0 | 0.0 | 0.00 | 0.00 | 0.00 | 71 | 1008.1 |
| 20260509234916 | 27 | 199 | 0.0 | 0.0 | 0.00 | 0.00 | 0.00 | 70 | 1008.1 |
| 20260509234413 | 27 | 205 | 0.0 | 0.0 | 0.00 | 0.00 | 0.00 | 70 | 1008.0 |
| 20260509233911 | 27 | 171 | 1.6 | 3.2 | 0.00 | 0.00 | 0.00 | 70 | 1008.1 |
| 20260509233403 | 27 | 196 | 0.0 | 0.0 | 0.00 | 0.00 | 0.00 | 70 | 1008.1 |
| 20260509232858 | 27 | 204 | 0.0 | 4.8 | 0.00 | 0.00 | 0.00 | 68 | 1008.0 |
| 20260509232357 | 28 | 192 | 0.0 | 3.2 | 0.00 | 0.00 | 0.00 | 68 | 1008.1 |
| 20260509231852 | 28 | 180 | 3.2 | 4.8 | 0.00 | 0.00 | 0.00 | 67 | 1008.1 |
| 20260509231349 | 28 | 182 | 1.6 | 4.8 | 0.00 | 0.00 | 0.00 | 67 | 1008.1 |
| 20260509230847 | 28 | 117 | 0.0 | 4.8 | 0.00 | 0.00 | 0.00 | 67 | 1008.0 |
| 20260509230344 | 28 | 128 | 1.6 | 4.8 | 0.00 | 0.00 | 0.00 | 67 | 1008.1 |
| 20260509225839 | 28 | 136 | 0.0 | 0.0 | 0.00 | 0.00 | 0.00 | 67 | 1008.0 |
| 20260509225337 | 28 | 148 | 3.2 | 4.8 | 0.00 | 0.00 | 0.00 | 67 | 1008.0 |
| 20260509224832 | 28 | 135 | 3.2 | 4.8 | 0.00 | 0.00 | 0.00 | 66 | 1008.1 |
| 20260509224328 | 28 | 133 | 0.0 | 4.8 | 0.00 | 0.00 | 0.00 | 65 | 1007.9 |
| 20260509223825 | 29 | 116 | 4.8 | 6.4 | 0.00 | 0.00 | 0.00 | 64 | 1008.0 |
| 20260509223322 | 30 | 130 | 3.2 | 11.3 | 0.00 | 0.00 | 0.00 | 62 | 1008.0 |
| 20260509222819 | 30 | 214 | 0.0 | 0.0 | 0.00 | 0.00 | 0.00 | 60 | 1007.8 |
| 20260509222315 | 30 | 213 | 0.0 | 0.0 | 0.00 | 0.00 | 0.00 | 60 | 1007.7 |
| 20260509221810 | 30 | 217 | 0.0 | 0.0 | 0.00 | 0.00 | 0.00 | 60 | 1007.9 |
| 20260509221308 | 30 | 273 | 0.0 | 0.0 | 0.00 | 0.00 | 0.00 | 62 | 1008.1 |
| 20260509220807 | 29 | 232 | 0.0 | 0.0 | 0.00 | 0.00 | 0.00 | 63 | 1008.1 |
| 20260509220304 | 29 | 214 | 3.2 | 4.8 | 0.00 | 0.00 | 0.00 | 63 | 1008.0 |
| 20260509215800 | 29 | 221 | 0.0 | 3.2 | 0.00 | 0.00 | 0.00 | 64 | 1008.0 |
| 20260509215257 | 28 | 196 | 0.0 | 4.8 | 0.00 | 0.00 | 0.00 | 64 | 1007.8 |
| 20260509214754 | 28 | 247 | 0.0 | 1.6 | 0.00 | 0.00 | 0.00 | 66 | 1008.1 |
| 20260509214251 | 29 | 213 | 0.0 | 0.0 | 0.00 | 0.00 | 0.00 | 64 | 1008.1 |
| 20260509213747 | 29 | 226 | 0.0 | 0.0 | 0.00 | 0.00 | 0.00 | 66 | 1008.2 |
| 20260509213243 | 28 | 192 | 0.0 | 1.6 | 0.00 | 0.00 | 0.00 | 67 | 1008.3 |
| 20260509212740 | 28 | 179 | 0.0 | 1.6 | 0.00 | 0.00 | 0.00 | 66 | 1008.3 |
| 20260509212238 | 29 | 217 | 0.0 | 3.2 | 0.00 | 0.00 | 0.00 | 66 | 1008.3 |
| 20260509211733 | 28 | 126 | 0.0 | 1.6 | 0.00 | 0.00 | 0.00 | 66 | 1008.1 |
| 20260509211230 | 28 | 137 | 3.2 | 4.8 | 0.00 | 0.00 | 0.00 | 67 | 1008.3 |
| 20260509210727 | 28 | 219 | 0.0 | 4.8 | 0.00 | 0.00 | 0.00 | 66 | 1008.0 |
| 20260509210225 | 28 | 171 | 0.0 | 0.0 | 0.00 | 0.00 | 0.00 | 66 | 1008.3 |
| 20260509205724 | 28 | 193 | 1.6 | 3.2 | 0.00 | 0.00 | 0.00 | 66 | 1008.3 |
| 20260509205224 | 29 | 184 | 3.2 | 4.8 | 0.00 | 0.00 | 0.00 | 65 | 1008.5 |
| 20260509204720 | 29 | 144 | 3.2 | 4.8 | 0.00 | 0.00 | 0.00 | 65 | 1008.8 |
| 20260509204217 | 30 | 205 | 3.2 | 4.8 | 0.00 | 0.00 | 0.00 | 65 | 1008.7 |
| 20260509203713 | 30 | 177 | 6.4 | 9.7 | 0.00 | 0.00 | 0.00 | 65 | 1008.9 |
| 20260509203211 | 29 | 1 | 0.0 | 0.0 | 0.00 | 0.00 | 0.00 | 67 | 1008.9 |
| 20260509202706 | 28 | 204 | 1.6 | 3.2 | 0.00 | 0.00 | 0.00 | 67 | 1009.1 |
| 20260509202201 | 28 | 202 | 3.2 | 4.8 | 0.00 | 0.00 | 0.00 | 68 | 1009.2 |
| 20260509201657 | 29 | 153 | 3.2 | 4.8 | 0.00 | 0.00 | 0.00 | 69 | 1009.0 |
| 20260509201154 | 28 | 248 | 0.0 | 3.2 | 0.00 | 0.00 | 0.00 | 71 | 1009.2 |
| 20260509200650 | 28 | 308 | 1.6 | 3.2 | 0.00 | 0.00 | 0.00 | 71 | 1009.1 |
| 20260509200145 | 28 | 137 | 3.2 | 6.4 | 0.00 | 0.00 | 0.00 | 71 | 1009.2 |
| 20260509195642 | 28 | 140 | 0.0 | 1.6 | 0.00 | 0.00 | 0.00 | 72 | 1009.4 |
| 20260509195137 | 28 | 150 | 0.0 | 0.0 | 0.00 | 0.00 | 0.00 | 73 | 1009.3 |
| 20260509194636 | 27 | 175 | 4.8 | 6.4 | 0.00 | 0.00 | 0.00 | 76 | 1009.5 |
| 20260509194134 | 27 | 204 | 0.0 | 3.2 | 0.00 | 0.00 | 0.00 | 76 | 1009.5 |
| 20260509193630 | 26 | 106 | 1.6 | 4.8 | 0.00 | 0.00 | 0.00 | 77 | 1009.6 |
| 20260509193125 | 27 | 132 | 4.8 | 11.3 | 0.00 | 0.00 | 0.00 | 75 | 1009.6 |
| 20260509192623 | 27 | 223 | 0.0 | 4.8 | 0.00 | 0.00 | 0.00 | 78 | 1009.6 |
| 20260509192117 | 27 | 157 | 0.0 | 4.8 | 0.00 | 0.00 | 0.00 | 77 | 1009.5 |
| 20260509191612 | 26 | 118 | 1.6 | 3.2 | 0.00 | 0.00 | 0.00 | 78 | 1009.6 |
| 20260509191109 | 26 | 99 | 1.6 | 6.4 | 0.00 | 0.00 | 0.00 | 77 | 1010.0 |
| 20260509190606 | 26 | 207 | 0.0 | 4.8 | 0.00 | 0.00 | 0.00 | 79 | 1009.9 |
| 20260509185601 | 26 | 171 | 0.0 | 1.6 | 0.00 | 0.00 | 0.00 | 79 | 1010.0 |
| 20260509185056 | 26 | 110 | 3.2 | 4.8 | 0.00 | 0.00 | 0.00 | 79 | 1010.0 |
| 20260509184555 | 26 | 240 | 1.6 | 11.3 | 0.00 | 0.00 | 0.00 | 82 | 1009.9 |
| 20260509184051 | 25 | 227 | 1.6 | 11.3 | 0.00 | 0.00 | 0.00 | 81 | 1010.0 |
| 20260509183546 | 25 | 150 | 0.0 | 4.8 | 0.00 | 0.00 | 0.00 | 82 | 1009.9 |
| 20260509183043 | 25 | 179 | 0.0 | 4.8 | 0.00 | 0.00 | 0.00 | 82 | 1010.1 |
| 20260509182539 | 25 | 172 | 3.2 | 6.4 | 0.00 | 0.00 | 0.00 | 81 | 1010.0 |
| 20260509182036 | 25 | 181 | 0.0 | 3.2 | 0.00 | 0.00 | 0.00 | 80 | 1010.0 |
| 20260509181534 | 25 | 188 | 0.0 | 1.6 | 0.00 | 0.00 | 0.00 | 80 | 1010.2 |
| 20260509181031 | 25 | 192 | 0.0 | 1.6 | 0.00 | 0.00 | 0.00 | 81 | 1010.1 |
| 20260509180527 | 26 | 22 | 0.0 | 0.0 | 0.00 | 0.00 | 0.00 | 81 | 1010.1 |
| 20260509180025 | 25 | 241 | 0.0 | 0.0 | 0.00 | 0.00 | 0.00 | 81 | 1010.2 |
| 20260509175519 | 25 | 282 | 0.0 | 0.0 | 0.00 | 0.00 | 0.00 | 82 | 1010.2 |
| 20260509175017 | 25 | 210 | 0.0 | 0.0 | 0.00 | 0.00 | 0.00 | 82 | 1010.2 |
| 20260509174513 | 25 | 179 | 0.0 | 0.0 | 0.00 | 0.00 | 0.00 | 82 | 1010.3 |
| 20260509174008 | 25 | 123 | 0.0 | 0.0 | 0.00 | 0.00 | 0.00 | 82 | 1010.3 |
| 20260509173503 | 25 | 7 | 0.0 | 0.0 | 0.00 | 0.00 | 0.00 | 82 | 1010.2 |
| 20260509172959 | 25 | 118 | 3.2 | 6.4 | 0.00 | 0.00 | 0.00 | 81 | 1010.3 |
| 20260509172457 | 25 | 133 | 3.2 | 4.8 | 0.00 | 0.00 | 0.00 | 83 | 1010.3 |
| 20260509171952 | 25 | 206 | 1.6 | 1.6 | 0.00 | 0.00 | 0.00 | 83 | 1010.2 |
| 20260509171448 | 25 | 126 | 0.0 | 1.6 | 0.00 | 0.00 | 0.00 | 83 | 1010.3 |
| 20260509170945 | 25 | 163 | 0.0 | 3.2 | 0.00 | 0.00 | 0.00 | 84 | 1010.6 |
| 20260509170441 | 24 | 226 | 0.0 | 0.0 | 0.00 | 0.00 | 0.00 | 86 | 1010.4 |
| 20260509165937 | 24 | 52 | 0.0 | 0.0 | 0.00 | 0.00 | 0.00 | 86 | 1010.6 |
| 20260509165436 | 24 | 159 | 0.0 | 0.0 | 0.00 | 0.00 | 0.00 | 86 | 1010.5 |
| 20260509164932 | 23 | 238 | 0.0 | 0.0 | 0.00 | 0.00 | 0.00 | 87 | 1010.8 |
| 20260509164428 | 23 | 205 | 0.0 | 0.0 | 0.00 | 0.00 | 0.00 | 87 | 1010.6 |
| 20260509163924 | 23 | 214 | 0.0 | 0.0 | 0.00 | 0.00 | 0.00 | 87 | 1010.7 |
| 20260509163422 | 23 | 289 | 0.0 | 0.0 | 0.00 | 0.00 | 0.00 | 88 | 1010.8 |
| 20260509162920 | 23 | 290 | 1.6 | 1.6 | 0.00 | 0.00 | 0.00 | 88 | 1010.7 |
| 20260509162419 | 23 | 220 | 0.0 | 0.0 | 0.00 | 0.00 | 0.00 | 88 | 1010.7 |
| 20260509161915 | 23 | 73 | 0.0 | 0.0 | 0.00 | 0.00 | 0.00 | 88 | 1010.6 |
| 20260509161411 | 23 | 104 | 0.0 | 0.0 | 0.00 | 0.00 | 0.00 | 89 | 1010.5 |
| 20260509160907 | 23 | 324 | 0.0 | 1.6 | 0.00 | 0.00 | 0.00 | 89 | 1010.3 |
| 20260509160408 | 23 | 55 | 0.0 | 3.2 | 0.00 | 0.00 | 0.00 | 89 | 1010.2 |
| 20260509155903 | 23 | 175 | 0.0 | 0.0 | 0.00 | 0.00 | 0.00 | 89 | 1010.3 |
| 20260509155400 | 22 | 198 | 0.0 | 0.0 | 0.00 | 0.00 | 0.00 | 89 | 1010.3 |
| 20260509154856 | 22 | 135 | 3.2 | 4.8 | 0.00 | 0.00 | 0.00 | 89 | 1010.3 |
| 20260509154353 | 22 | 172 | 0.0 | 3.2 | 0.00 | 0.00 | 0.00 | 90 | 1010.1 |
| 20260509153850 | 22 | 109 | 0.0 | 3.2 | 0.00 | 0.00 | 0.00 | 90 | 1010.2 |
| 20260509153347 | 22 | 168 | 0.0 | 3.2 | 0.00 | 0.00 | 0.00 | 90 | 1010.3 |
| 20260509152844 | 22 | 172 | 0.0 | 0.0 | 0.00 | 0.00 | 0.00 | 90 | 1010.2 |
| 20260509152339 | 22 | 154 | 0.0 | 0.0 | 0.00 | 0.00 | 0.00 | 90 | 1010.4 |
| 20260509151837 | 22 | 162 | 0.0 | 0.0 | 0.00 | 0.00 | 0.00 | 90 | 1010.3 |
| 20260509151333 | 22 | 207 | 0.0 | 0.0 | 0.00 | 0.00 | 0.00 | 90 | 1010.5 |
| 20260509150832 | 22 | 206 | 0.0 | 0.0 | 0.00 | 0.00 | 0.00 | 91 | 1010.4 |
| 20260509150329 | 22 | 256 | 0.0 | 0.0 | 0.00 | 0.00 | 0.00 | 91 | 1010.5 |
| 20260509145826 | 22 | 278 | 0.0 | 0.0 | 0.00 | 0.33 | 0.33 | 91 | 1010.5 |
| 20260509145321 | 21 | 223 | 0.0 | 0.0 | 0.00 | 0.33 | 0.33 | 91 | 1010.6 |
| 20260509144818 | 21 | 246 | 0.0 | 0.0 | 0.00 | 0.33 | 0.33 | 91 | 1010.7 |
| 20260509144315 | 22 | 194 | 0.0 | 0.0 | 0.00 | 0.33 | 0.33 | 91 | 1010.7 |
| 20260509143812 | 22 | 200 | 0.0 | 1.6 | 0.00 | 0.33 | 0.33 | 91 | 1010.8 |
| 20260509143309 | 22 | 211 | 0.0 | 1.6 | 0.00 | 0.33 | 0.33 | 92 | 1010.7 |
| 20260509142805 | 21 | 253 | 0.0 | 0.0 | 0.00 | 0.33 | 0.33 | 92 | 1010.5 |
| 20260509142301 | 21 | 199 | 0.0 | 3.2 | 0.00 | 0.33 | 0.33 | 92 | 1010.6 |
| 20260509141757 | 22 | 169 | 0.0 | 4.8 | 0.00 | 0.33 | 0.33 | 92 | 1010.6 |
| 20260509141254 | 22 | 191 | 0.0 | 0.0 | 0.00 | 0.33 | 0.33 | 93 | 1010.7 |
| 20260509140751 | 21 | 204 | 0.0 | 0.0 | 0.00 | 0.33 | 0.33 | 93 | 1010.6 |
| 20260509140248 | 21 | 184 | 0.0 | 0.0 | 0.00 | 0.33 | 0.33 | 94 | 1010.5 |
| 20260509135745 | 20 | 185 | 0.0 | 0.0 | 0.00 | 0.33 | 0.33 | 94 | 1010.7 |
| 20260509135243 | 20 | 195 | 0.0 | 0.0 | 0.00 | 0.33 | 0.33 | 94 | 1010.5 |
| 20260509134740 | 20 | 164 | 0.0 | 3.2 | 0.00 | 0.33 | 0.33 | 94 | 1010.6 |
| 20260509134238 | 20 | 194 | 0.0 | 3.2 | 0.00 | 0.33 | 0.33 | 95 | 1010.6 |
| 20260509133734 | 20 | 200 | 0.0 | 0.0 | 0.00 | 0.33 | 0.33 | 95 | 1010.6 |
| 20260509133231 | 20 | 179 | 0.0 | 0.0 | 0.00 | 0.33 | 0.33 | 95 | 1010.5 |
| 20260509132730 | 19 | 181 | 0.0 | 0.0 | 0.00 | 0.33 | 0.33 | 95 | 1010.5 |
| 20260509132228 | 19 | 146 | 0.0 | 0.0 | 0.00 | 0.33 | 0.33 | 95 | 1010.7 |
| 20260509131724 | 19 | 175 | 0.0 | 0.0 | 0.00 | 0.33 | 0.33 | 95 | 1010.8 |
| 20260509131221 | 19 | 178 | 0.0 | 0.0 | 0.00 | 0.33 | 0.33 | 95 | 1010.8 |
| 20260509130717 | 19 | 186 | 0.0 | 0.0 | 0.00 | 0.33 | 0.33 | 95 | 1010.6 |
| 20260509130213 | 19 | 186 | 0.0 | 0.0 | 0.00 | 0.33 | 0.33 | 95 | 1010.7 |
| 20260509125710 | 18 | 186 | 0.0 | 0.0 | 0.00 | 0.33 | 0.33 | 95 | 1010.7 |
| 20260509125207 | 18 | 186 | 0.0 | 0.0 | 0.00 | 0.33 | 0.33 | 95 | 1010.7 |
| 20260509124703 | 18 | 192 | 0.0 | 0.0 | 0.00 | 0.33 | 0.33 | 95 | 1010.8 |
| 20260509124159 | 18 | 182 | 0.0 | 0.0 | 0.00 | 0.33 | 0.33 | 95 | 1010.8 |
| 20260509123658 | 18 | 177 | 0.0 | 0.0 | 0.00 | 0.33 | 0.33 | 95 | 1010.8 |
| 20260509123155 | 18 | 153 | 0.0 | 0.0 | 0.00 | 0.33 | 0.33 | 95 | 1010.7 |
| 20260509122650 | 18 | 172 | 0.0 | 0.0 | 0.00 | 0.33 | 0.33 | 95 | 1010.6 |
| 20260509122148 | 18 | 139 | 0.0 | 0.0 | 0.00 | 0.33 | 0.33 | 95 | 1010.4 |
| 20260509121644 | 18 | 151 | 0.0 | 0.0 | 0.00 | 0.33 | 0.33 | 95 | 1010.5 |
| 20260509121142 | 18 | 166 | 0.0 | 3.2 | 0.00 | 0.33 | 0.33 | 95 | 1010.2 |
| 20260509120640 | 18 | 170 | 0.0 | 0.0 | 0.00 | 0.33 | 0.33 | 95 | 1010.1 |
| 20260509120138 | 17 | 193 | 0.0 | 0.0 | 0.00 | 0.33 | 0.33 | 95 | 1010.1 |
| 20260509115635 | 17 | 182 | 0.0 | 0.0 | 0.00 | 0.33 | 0.33 | 95 | 1010.1 |
| 20260509115132 | 17 | 182 | 0.0 | 0.0 | 0.00 | 0.33 | 0.33 | 95 | 1009.9 |
| 20260509114631 | 17 | 188 | 0.0 | 0.0 | 0.00 | 0.33 | 0.33 | 95 | 1009.6 |
| 20260509114129 | 17 | 185 | 0.0 | 0.0 | 0.00 | 0.33 | 0.33 | 94 | 1009.5 |
| 20260509113627 | 17 | 199 | 0.0 | 0.0 | 0.00 | 0.33 | 0.33 | 94 | 1009.5 |
| 20260509113124 | 17 | 191 | 0.0 | 0.0 | 0.00 | 0.33 | 0.33 | 94 | 1009.5 |
| 20260509112620 | 17 | 171 | 0.0 | 0.0 | 0.00 | 0.33 | 0.33 | 94 | 1009.5 |
| 20260509112117 | 17 | 157 | 0.0 | 0.0 | 0.00 | 0.33 | 0.33 | 94 | 1009.4 |
| 20260509111614 | 17 | 166 | 0.0 | 0.0 | 0.00 | 0.33 | 0.33 | 94 | 1009.4 |
| 20260509111111 | 17 | 176 | 0.0 | 0.0 | 0.00 | 0.33 | 0.33 | 94 | 1009.2 |
| 20260509110608 | 17 | 169 | 0.0 | 0.0 | 0.00 | 0.33 | 0.33 | 94 | 1009.0 |
| 20260509110105 | 17 | 173 | 0.0 | 0.0 | 0.00 | 0.33 | 0.33 | 94 | 1009.2 |
| 20260509105604 | 17 | 194 | 0.0 | 0.0 | 0.00 | 0.33 | 0.33 | 94 | 1009.3 |
| 20260509105101 | 17 | 190 | 0.0 | 0.0 | 0.00 | 0.33 | 0.33 | 94 | 1009.1 |
| 20260509104557 | 17 | 188 | 0.0 | 0.0 | 0.00 | 0.33 | 0.33 | 94 | 1009.0 |
| 20260509104054 | 17 | 115 | 0.0 | 0.0 | 0.00 | 0.33 | 0.33 | 93 | 1009.2 |
| 20260509103552 | 17 | 167 | 0.0 | 0.0 | 0.00 | 0.33 | 0.33 | 93 | 1009.2 |
| 20260509103050 | 17 | 194 | 0.0 | 0.0 | 0.00 | 0.33 | 0.33 | 93 | 1009.2 |
| 20260509102547 | 17 | 195 | 0.0 | 0.0 | 0.00 | 0.33 | 0.33 | 93 | 1009.0 |
| 20260509102044 | 17 | 195 | 0.0 | 0.0 | 0.00 | 0.33 | 0.33 | 93 | 1009.1 |
| 20260509101540 | 17 | 206 | 0.0 | 0.0 | 0.00 | 0.33 | 0.33 | 93 | 1009.0 |
| 20260509101037 | 17 | 213 | 0.0 | 0.0 | 0.00 | 0.33 | 0.33 | 93 | 1009.4 |
| 20260509100535 | 17 | 172 | 0.0 | 0.0 | 0.00 | 0.33 | 0.33 | 93 | 1009.1 |
| 20260509100032 | 17 | 208 | 0.0 | 0.0 | 0.00 | 0.33 | 0.33 | 93 | 1009.2 |
| 20260509095528 | 17 | 185 | 0.0 | 0.0 | 0.00 | 0.33 | 0.33 | 93 | 1009.2 |
| 20260509095026 | 17 | 178 | 0.0 | 0.0 | 0.13 | 0.33 | 0.33 | 92 | 1009.3 |
| 20260509094522 | 17 | 179 | 0.0 | 0.0 | 0.30 | 0.33 | 0.33 | 92 | 1009.4 |
| 20260509094019 | 17 | 195 | 0.0 | 0.0 | 0.18 | 0.30 | 0.30 | 92 | 1009.4 |
| 20260509093517 | 17 | 250 | 0.0 | 0.0 | 0.00 | 0.28 | 0.28 | 92 | 1009.4 |
| 20260509093015 | 17 | 185 | 0.0 | 0.0 | 0.00 | 0.28 | 0.28 | 92 | 1009.6 |
| 20260509092513 | 17 | 189 | 0.0 | 3.2 | 0.18 | 0.28 | 0.28 | 92 | 1009.7 |
| 20260509092011 | 17 | 178 | 0.0 | 0.0 | 0.13 | 0.25 | 0.25 | 91 | 1009.4 |
| 20260509091508 | 17 | 181 | 0.0 | 0.0 | 0.13 | 0.25 | 0.25 | 91 | 1009.2 |
| 20260509091004 | 17 | 212 | 0.0 | 0.0 | 0.00 | 0.23 | 0.23 | 91 | 1009.3 |
| 20260509090502 | 17 | 213 | 0.0 | 0.0 | 0.00 | 0.23 | 0.23 | 91 | 1009.3 |
| 20260509085959 | 17 | 211 | 0.0 | 0.0 | 0.00 | 0.23 | 0.23 | 91 | 1009.2 |
| 20260509085456 | 17 | 214 | 0.0 | 0.0 | 0.00 | 0.23 | 0.23 | 91 | 1009.1 |
| 20260509084952 | 17 | 214 | 0.0 | 0.0 | 0.00 | 0.23 | 0.23 | 91 | 1009.3 |
| 20260509084450 | 17 | 214 | 0.0 | 0.0 | 0.00 | 0.23 | 0.23 | 91 | 1009.2 |
| 20260509083947 | 17 | 182 | 0.0 | 0.0 | 0.00 | 0.23 | 0.23 | 90 | 1009.2 |
| 20260509083445 | 17 | 182 | 0.0 | 0.0 | 0.00 | 0.23 | 0.23 | 90 | 1009.3 |
| 20260509082941 | 17 | 182 | 0.0 | 0.0 | 0.00 | 0.23 | 0.23 | 90 | 1009.2 |
| 20260509082438 | 17 | 182 | 0.0 | 0.0 | 0.00 | 0.23 | 0.23 | 90 | 1009.1 |
| 20260509081935 | 17 | 204 | 0.0 | 0.0 | 0.00 | 0.23 | 0.23 | 89 | 1009.3 |
| 20260509081432 | 17 | 204 | 0.0 | 0.0 | 0.00 | 0.23 | 0.23 | 89 | 1009.1 |
| 20260509080929 | 17 | 239 | 0.0 | 0.0 | 0.00 | 0.23 | 0.23 | 89 | 1009.3 |
| 20260509080428 | 17 | 179 | 0.0 | 0.0 | 0.00 | 0.23 | 0.23 | 89 | 1009.0 |
| 20260509075925 | 17 | 225 | 0.0 | 0.0 | 0.00 | 0.23 | 0.23 | 88 | 1009.5 |
| 20260509075422 | 17 | 212 | 0.0 | 0.0 | 0.00 | 0.23 | 0.23 | 88 | 1009.3 |
| 20260509074919 | 17 | 230 | 0.0 | 0.0 | 0.00 | 0.23 | 0.23 | 88 | 1009.4 |
| 20260509074417 | 17 | 297 | 0.0 | 0.0 | 0.00 | 0.23 | 0.23 | 88 | 1009.5 |
| 20260509073913 | 18 | 185 | 0.0 | 0.0 | 0.00 | 0.23 | 0.23 | 88 | 1009.3 |
| 20260509073410 | 18 | 178 | 0.0 | 0.0 | 0.00 | 0.23 | 0.23 | 88 | 1009.6 |
| 20260509072906 | 18 | 255 | 0.0 | 0.0 | 0.00 | 0.23 | 0.23 | 88 | 1009.6 |
| 20260509072403 | 17 | 230 | 0.0 | 0.0 | 0.00 | 0.23 | 0.23 | 87 | 1009.6 |
| 20260509071900 | 17 | 320 | 0.0 | 0.0 | 0.00 | 0.23 | 0.23 | 87 | 1009.6 |
| 20260509071357 | 17 | 274 | 0.0 | 0.0 | 0.00 | 0.23 | 0.23 | 86 | 1009.7 |
| 20260509070854 | 18 | 278 | 0.0 | 0.0 | 0.00 | 0.23 | 0.23 | 86 | 1009.6 |
| 20260509070350 | 18 | 233 | 0.0 | 0.0 | 0.00 | 0.23 | 0.23 | 86 | 1009.6 |
| 20260509065846 | 18 | 226 | 0.0 | 0.0 | 0.00 | 0.23 | 0.23 | 85 | 1009.7 |
| 20260509065343 | 18 | 219 | 0.0 | 0.0 | 0.00 | 0.23 | 0.23 | 85 | 1009.8 |
| 20260509064839 | 18 | 296 | 0.0 | 0.0 | 0.00 | 0.23 | 0.23 | 84 | 1009.9 |
| 20260509064337 | 18 | 328 | 0.0 | 0.0 | 0.00 | 0.23 | 0.23 | 84 | 1009.8 |
| 20260509063835 | 19 | 211 | 0.0 | 0.0 | 0.00 | 0.23 | 0.23 | 84 | 1010.1 |
| 20260509063330 | 19 | 178 | 0.0 | 0.0 | 0.00 | 0.23 | 0.23 | 83 | 1009.6 |
| 20260509062828 | 19 | 99 | 0.0 | 3.2 | 0.00 | 0.23 | 0.23 | 83 | 1009.6 |
| 20260509062325 | 19 | 169 | 1.6 | 3.2 | 0.00 | 0.23 | 0.23 | 83 | 1009.6 |
| 20260509061822 | 19 | 182 | 1.6 | 4.8 | 0.00 | 0.23 | 0.23 | 83 | 1009.6 |
| 20260509061320 | 19 | 140 | 3.2 | 6.4 | 0.00 | 0.23 | 0.23 | 82 | 1009.6 |
| 20260509060817 | 19 | 161 | 8.0 | 9.7 | 0.00 | 0.23 | 0.23 | 82 | 1009.6 |
| 20260509060313 | 19 | 96 | 0.0 | 6.4 | 0.00 | 0.23 | 0.23 | 82 | 1009.6 |
| 20260509055809 | 19 | 177 | 3.2 | 4.8 | 0.00 | 0.23 | 0.23 | 81 | 1009.9 |
| 20260509055306 | 19 | 125 | 3.2 | 6.4 | 0.00 | 0.23 | 0.23 | 81 | 1010.0 |
| 20260509054802 | 20 | 161 | 0.0 | 6.4 | 0.00 | 0.23 | 0.23 | 81 | 1010.3 |
| 20260509054258 | 20 | 144 | 1.6 | 9.7 | 0.00 | 0.23 | 0.23 | 80 | 1010.2 |
| 20260509053757 | 20 | 114 | 3.2 | 11.3 | 0.00 | 0.23 | 0.23 | 80 | 1010.3 |
| 20260509053254 | 19 | 180 | 3.2 | 9.7 | 0.00 | 0.23 | 0.23 | 80 | 1010.5 |
| 20260509052752 | 19 | 160 | 6.4 | 9.7 | 0.00 | 0.23 | 0.23 | 80 | 1010.4 |
| 20260509052249 | 19 | 159 | 3.2 | 6.4 | 0.00 | 0.23 | 0.23 | 80 | 1010.4 |
| 20260509051747 | 19 | 169 | 0.0 | 9.7 | 0.00 | 0.23 | 0.23 | 80 | 1010.6 |
| 20260509051245 | 19 | 182 | 4.8 | 4.8 | 0.00 | 0.23 | 0.23 | 79 | 1010.7 |
| 20260509050741 | 19 | 186 | 3.2 | 4.8 | 0.00 | 0.23 | 0.23 | 79 | 1010.5 |
| 20260509050237 | 20 | 174 | 3.2 | 4.8 | 0.00 | 0.23 | 0.23 | 78 | 1010.8 |
| 20260509045735 | 20 | 218 | 0.0 | 0.0 | 0.00 | 0.23 | 0.23 | 78 | 1011.0 |
| 20260509045231 | 20 | 183 | 0.0 | 0.0 | 0.00 | 0.23 | 0.23 | 77 | 1010.9 |
| 20260509044729 | 20 | 232 | 0.0 | 0.0 | 0.00 | 0.23 | 0.23 | 77 | 1010.9 |
| 20260509044227 | 20 | 189 | 0.0 | 4.8 | 0.00 | 0.23 | 0.23 | 77 | 1010.8 |
| 20260509043722 | 20 | 38 | 3.2 | 4.8 | 0.00 | 0.23 | 0.23 | 77 | 1010.7 |
| 20260509043219 | 20 | 45 | 0.0 | 1.6 | 0.00 | 0.23 | 0.23 | 76 | 1010.7 |
| 20260509042715 | 20 | 178 | 0.0 | 1.6 | 0.00 | 0.23 | 0.23 | 76 | 1010.9 |
| 20260509042211 | 20 | 175 | 1.6 | 4.8 | 0.00 | 0.23 | 0.23 | 76 | 1010.8 |
| 20260509041708 | 20 | 173 | 3.2 | 3.2 | 0.00 | 0.23 | 0.23 | 76 | 1010.9 |
| 20260509041205 | 20 | 189 | 0.0 | 3.2 | 0.00 | 0.23 | 0.23 | 76 | 1010.6 |
| 20260509040704 | 20 | 178 | 0.0 | 0.0 | 0.00 | 0.23 | 0.23 | 75 | 1010.6 |
| 20260509040200 | 20 | 134 | 0.0 | 1.6 | 0.00 | 0.23 | 0.23 | 74 | 1010.3 |
| 20260509035657 | 20 | 249 | 0.0 | 3.2 | 0.00 | 0.23 | 0.23 | 74 | 1010.9 |
| 20260509035153 | 20 | 7 | 1.6 | 6.4 | 0.00 | 0.23 | 0.23 | 74 | 1010.4 |
| 20260509034651 | 20 | 12 | 4.8 | 6.4 | 0.00 | 0.23 | 0.23 | 73 | 1010.2 |
| 20260509034148 | 20 | 218 | 0.0 | 0.0 | 0.00 | 0.23 | 0.23 | 73 | 1010.5 |
| 20260509033645 | 20 | 265 | 0.0 | 3.2 | 0.00 | 0.23 | 0.23 | 72 | 1010.5 |
| 20260509033142 | 20 | 198 | 0.0 | 3.2 | 0.00 | 0.23 | 0.23 | 72 | 1009.7 |
| 20260509032640 | 20 | 176 | 6.4 | 12.9 | 0.00 | 0.23 | 0.23 | 72 | 1009.2 |
| 20260509032136 | 21 | 174 | 4.8 | 9.7 | 0.00 | 0.23 | 0.23 | 72 | 1008.9 |
| 20260509031634 | 21 | 178 | 3.2 | 9.7 | 0.00 | 0.23 | 0.23 | 72 | 1009.0 |
| 20260509031131 | 21 | 180 | 6.4 | 6.4 | 0.00 | 0.23 | 0.23 | 71 | 1009.5 |
| 20260509030630 | 21 | 318 | 3.2 | 4.8 | 0.00 | 0.23 | 0.23 | 72 | 1009.6 |
| 20260509030126 | 21 | 182 | 1.6 | 4.8 | 0.00 | 0.23 | 0.23 | 72 | 1008.4 |
| 20260509025622 | 21 | 136 | 4.8 | 6.4 | 0.00 | 0.23 | 0.23 | 73 | 1008.4 |
| 20260509025119 | 20 | 177 | 6.4 | 14.5 | 0.00 | 0.23 | 0.23 | 74 | 1007.6 |
| 20260509024614 | 20 | 139 | 6.4 | 12.9 | 0.00 | 0.23 | 0.23 | 75 | 1008.3 |
| 20260509024110 | 20 | 175 | 6.4 | 9.7 | 0.00 | 0.23 | 0.23 | 76 | 1008.7 |
| 20260509023608 | 20 | 178 | 3.2 | 3.2 | 0.00 | 0.23 | 0.23 | 77 | 1009.4 |
| 20260509023105 | 20 | 159 | 3.2 | 3.2 | 0.00 | 0.23 | 0.23 | 77 | 1009.5 |